ORBWEAVER 2 (43785 NORAD) Tracking and Keplerian Element Data

This shows tracking and keplerian element data for the satellite.

Feedback or suggestion? Click here.




ElementValue
Catalog43785
NameORBWEAVER 2
Epoch Orbit30152
Epoch Day159.6420051
Epoch Year2024
RAAN229.0803
Inclination97.5196
Eccentricity0.0008396
Argument of Perigee285.4216
Mean Anonmoly74.6098
Mean Motion15.34041126
Decay Rate0.00079913
L11 43785U 18099AD 24159.64200510 .00079913 00000+0 24037-2 0 9999
L22 43785 97.5196 229.0803 0008396 285.4216 74.6098 15.34041126301526



Live tracking and technical data element details for ORBWEAVER 2 (NORAD 43785). ORBWEAVER 2 can be tracked NOW for your location showing map with azimuth and elevation plus other details from your city location.







IsCatalogInMostPopularTable: catalog: 43785, numindb: 359
Update: records affected: 1



GetName: 43785 ORBWEAVER 2

Hit Count: updated at: Sat, 14 Mar 2026 03:16:24 GMT